STARLINK-32438, 61722

Orbit data source: Space-Track

STARLINK-32438, 61722 is a payload satellite owned by SpaceX/Seattle (US) in LEO that was launched on Wed, 30 Oct 2024 UTC via an FALCON 9 launch vehicle from the Air Force Eastern Test Range (AFETR). Payload-class satellites include a variety of spacecraft equipped with specific instruments for various scientific and technological missions. These include communications satellites like Starlink; space stations such as the ISS; scientific satellites like the Hubble; Earth observation satellites from companies like Planet Labs, Umbra, and HawkEye 360; GPS; miniature CubeSats for education and research; and military/defense satellites.

Loading next visibility...
Identifier
61722, 2024-196R
Orbit
LEO
Country
Flag of USUS
Related business
Manufacturer
SpaceX/Seattle
Mission
Operational Commercial Communications
Bus & Motor
STARLINK V2M, Unknown motor
Mass
730 kg wet, ~700 kg dry
Launch date (UTC)
2024-10-30 (11 months ago)
Launch vehicle
FALCON 9
Launch site
Air Force Eastern Test Range (AFETR)
Object type
Payload
Rocket body
Debris
Shape & HBR
Box + 2 Pan, 14.5 m
Radar Cross Section
36.964 m², Large (>1 m²)

Expand to show TLE details & history
Last TLE update: 7 hours ago

TLE from 7 hours ago
0 STARLINK-32438
1 61722U 24196R   25261.19661406  .00003670  00000-0  13604-3 0  9992
2 61722  53.1620 182.7990 0001609  90.7803 269.3382 15.30185189 50746
Epoch: 2025-09-18T04:43Z
TLE epoch observation values (Epoch: 2025-09-18T04:43:07.454Z)
Latitude
-0.00005°
Longitude
114.65623°
Altitude
476.172 km
Speed
7.629 km/s
True Right ascension
12h 11m 11s
True Declination
0° 00' 00"
Sunlit
Object was in daylight at epoch
Visualization orbit readout
Latitude
Unknown
Longitude
Unknown
Altitude
Unknown
Speed
Unknown
Apparent Right ascension
Unknown
Apparent Declination
Unknown
Sunlit
N/A
Visualization observer readout
Local Sidereal Time
04:50:09
Azimuth
Unknown
Elevation
Unknown
Doppler factor
Unknown
Orbital elements
Apogee altitude
476.618 km
Perigee altitude
474.413 km
Semi-major axis
6,853.652 km
Eccentricity
0.00016
Inclination
53.162°
RAAN
182.799°
Arg. of periapsis
90.7803°
True anomaly
269.31976°
Mean anomaly
269.3382°
Eccentric anomaly
269.32898°
Mean motion
3.82525 °/min
Orbital period
94.11 mins
BSTAR
0.00013604
Loading maneuver chart data...
Computing Atmospheric mass density...
Loading historical data...
Loading historical data...
Loading historical data...
Loading historical data...
Loading historical data...
Loading historical data...
Loading historical data...

Documentation

Showing up to 5 results
|